Location: Cheyres
(46.8153°N, 6.7877°E)
Time: 21:23:05
(UTC+00:00)

PicSat - Pass Details

Date: 07 July 2022
Orbit: 446 x 455 km, 97.4° (Epoch: 13 August)

Event Time Altitude Azimuth Distance (km) Brightness Sun altitude
Exits shadow 22:30:14 24° 238° (WSW) 992 ? -19.0°
Maximum altitude 22:31:06 27° 264° (W) 916 ? -19.1°
Drops below altitude 10° 22:34:08 10° 325° (NW) 1,622 ? -19.2°
Sets 22:36:24 0° 337° (NNW) 2,505 ? -19.3°
